Home > Weather > Ulm > Past weeks

Flag for Germany Weather for the Past 2 Weeks in Ulm, Baden-Württemberg, Germany

Now
59 °F

Refreshingly cool.


Feels Like: 57 °F
Forecast: 40 / 67 °F
Wind: 12 mph from East

Location: Laupheim Airport

Current Time: May 5, 2016 at 8:13:30 PM

Latest Report: May 5, 2016 at 7:20 PM


Visibility: N/A

Pressure: 30.09 "Hg

Humidity: 51%

Dew Point: 41 °F

Location of UlmLocation

Historic Weather in Ulm — Graph

°F

Ulm Temperature Yesterday

Maximum temperature yesterday: 55 °F (at 3:20 PM)
Minimum temperature yesterday: 39 °F (at 5:20 AM)
Average temperature yesterday: 48 °F

High & Low Weather Summary for the Past Weeks

 TemperatureHumidityPressure
High64 °F (Apr 21, 3:20 PM)100% (Apr 26, 7:20 PM)30.33 "Hg (Apr 26, 7:20 PM)
Low28 °F (Apr 28, 4:20 AM)33% (Apr 29, 7:20 PM)29.59 "Hg (Apr 26, 7:20 AM)
Average45 °F70%29.99 "Hg
* Reported Apr 20 6:20 PM — May 5 6:20 PM, Ulm, Weather by CustomWeather, © 2016

Note: Actual official high and low records may vary slightly from our data, if they occured in-between our weather recording intervals... More about our weather records

Advertising

Ulm Weather History for the Previous 24 Hours

Scroll right to see more
 ConditionsComfort  
Time TempWeatherWind HumidityBarometerVisibility
6:20 PM
Thu, May 5
61 °FRefreshingly cool.14 mph48%30.12 "HgN/A
5:20 PM61 °FPassing clouds.14 mph52%30.12 "HgN/A
4:20 PM61 °FPassing clouds.17 mph48%30.12 "HgN/A
3:20 PM59 °FPassing clouds.16 mph48%30.15 "HgN/A
2:20 PM57 °FPassing clouds.16 mph51%30.15 "HgN/A
1:20 PM57 °FPassing clouds.18 mph48%30.18 "HgN/A
12:20 PM55 °FPassing clouds.20 mph51%30.18 "HgN/A
11:20 AM54 °FPassing clouds.18 mph54%30.21 "HgN/A
10:20 AM50 °FPassing clouds.20 mph58%30.21 "HgN/A
9:20 AM46 °FPassing clouds.13 mph66%30.24 "HgN/A
8:20 AM43 °FPassing clouds.9 mph76%30.24 "HgN/A
7:20 AM37 °FChilly.8 mph87%30.24 "HgN/A
6:20 AM37 °FChilly.3 mph87%30.27 "HgN/A
5:20 AM37 °FChilly.9 mph81%30.27 "HgN/A
4:20 AM37 °FChilly.7 mph75%30.27 "HgN/A
3:20 AM37 °FChilly.6 mph75%30.27 "HgN/A
2:20 AM41 °FQuite cool.7 mph61%30.27 "HgN/A
1:20 AM41 °FQuite cool.6 mph57%30.27 "HgN/A
12:20 AM41 °FQuite cool.5 mph61%30.30 "HgN/A
11:20 PM
Wed, May 4
45 °FPassing clouds.5 mph49%30.30 "HgN/A
10:20 PM45 °FPassing clouds.3 mph53%30.30 "HgN/A
9:20 PM48 °FBroken clouds.5 mph50%30.30 "HgN/A
8:20 PM52 °FPartly sunny.7 mph41%30.27 "HgN/A
Weather by CustomWeather, © 2016

See weather overviewHow to use our weather pages